Time,TemperatureF,DewpointF,PressureIn,WindDirection,WindDirectionDegrees,WindSpeedMPH,WindSpeedGustMPH,Humidity,HourlyPrecipIn,Conditions,Clouds,dailyrainin,SoftwareType,DateUTC
2013-03-27 00:00:00,31.0,21.7,29.80,North,360,0.0,0.0,68,0.00,CLR,,0.00,WeatherDisplay:10.37,2013-03-27 04:00:00,
2013-03-27 00:05:00,31.0,21.3,29.80,North,360,0.2,1.2,67,0.00,CLR,,0.00,WeatherDisplay:10.37,2013-03-27 04:05:00,
2013-03-27 00:10:00,30.9,21.6,29.80,North,360,0.0,0.0,68,0.00,CLR,,0.00,WeatherDisplay:10.37,2013-03-27 04:10:00,
2013-03-27 00:15:00,30.7,21.4,29.80,North,360,0.0,0.0,68,0.00,CLR,,0.00,WeatherDisplay:10.37,2013-03-27 04:15:00,
2013-03-27 00:20:00,30.7,21.7,29.80,North,360,0.6,1.2,69,0.00,CLR,,0.00,WeatherDisplay:10.37,2013-03-27 04:20:00,
2013-03-27 00:25:00,30.6,20.9,29.80,North,360,0.0,0.0,67,0.00,CLR,,0.00,WeatherDisplay:10.37,2013-03-27 04:25:00,
2013-03-27 00:30:00,30.4,20.7,29.80,North,360,0.0,0.0,67,0.00,CLR,,0.00,WeatherDisplay:10.37,2013-03-27 04:30:00,
2013-03-27 00:35:00,30.1,20.8,29.80,North,360,0.0,0.0,68,0.00,CLR,,0.00,WeatherDisplay:10.37,2013-03-27 04:35:00,
2013-03-27 00:40:00,29.9,20.6,29.80,North,360,0.0,0.0,68,0.00,CLR,,0.00,WeatherDisplay:10.37,2013-03-27 04:40:00,
2013-03-27 00:45:00,29.5,20.9,29.80,North,360,0.0,0.0,70,0.00,CLR,,0.00,WeatherDisplay:10.37,2013-03-27 04:45:00,
2013-03-27 00:50:00,29.4,20.8,29.80,North,360,0.0,0.0,70,0.00,CLR,,0.00,WeatherDisplay:10.37,2013-03-27 04:50:00,
2013-03-27 00:55:00,29.1,20.5,29.80,North,360,0.0,0.0,70,0.00,CLR,,0.00,WeatherDisplay:10.37,2013-03-27 04:55:00,
2013-03-27 01:00:00,28.9,20.7,29.80,North,360,0.0,0.0,71,0.00,CLR,,0.00,WeatherDisplay:10.37,2013-03-27 05:00:00,
2013-03-27 01:05:00,29.1,20.5,29.80,North,360,0.0,0.0,70,0.00,CLR,,0.00,WeatherDisplay:10.37,2013-03-27 05:05:00,
2013-03-27 01:10:00,28.9,20.7,29.80,North,360,0.0,0.0,71,0.00,CLR,,0.00,WeatherDisplay:10.37,2013-03-27 05:10:00,
2013-03-27 01:15:00,29.0,20.4,29.80,North,360,0.0,0.0,70,0.00,CLR,,0.00,WeatherDisplay:10.37,2013-03-27 05:15:00,
2013-03-27 01:21:00,29.2,20.3,29.80,North,360,0.0,0.0,69,0.00,CLR,,0.00,WeatherDisplay:10.37,2013-03-27 05:21:00,
2013-03-27 01:26:00,29.0,20.4,29.80,North,360,0.0,0.0,70,0.00,CLR,,0.00,WeatherDisplay:10.37,2013-03-27 05:26:00,
2013-03-27 01:31:00,28.7,20.1,29.80,North,360,0.0,0.0,70,0.00,CLR,,0.00,WeatherDisplay:10.37,2013-03-27 05:31:00,
2013-03-27 01:36:00,28.1,19.9,29.80,North,360,0.0,0.0,71,0.00,CLR,,0.00,WeatherDisplay:10.37,2013-03-27 05:36:00,
2013-03-27 01:41:00,28.0,20.1,29.80,North,360,0.0,0.0,72,0.00,CLR,,0.00,WeatherDisplay:10.37,2013-03-27 05:41:00,
2013-03-27 01:46:00,28.4,20.2,29.80,North,360,0.0,0.0,71,0.00,CLR,,0.00,WeatherDisplay:10.37,2013-03-27 05:46:00,
2013-03-27 01:51:00,28.7,20.8,29.80,North,360,0.0,0.0,72,0.00,CLR,,0.00,WeatherDisplay:10.37,2013-03-27 05:51:00,
2013-03-27 01:56:00,29.1,20.5,29.80,WSW,247,0.4,2.3,70,0.00,CLR,,0.00,WeatherDisplay:10.37,2013-03-27 05:56:00,
2013-03-27 02:01:00,29.5,20.9,29.80,WSW,247,0.2,1.3,70,0.00,CLR,,0.00,WeatherDisplay:10.37,2013-03-27 06:01:00,
2013-03-27 02:06:00,29.4,20.8,29.80,WSW,247,0.4,1.2,70,0.00,CLR,,0.00,WeatherDisplay:10.37,2013-03-27 06:06:00,
2013-03-27 02:11:00,29.2,21.0,29.80,WSW,247,0.0,0.0,71,0.00,CLR,,0.00,WeatherDisplay:10.37,2013-03-27 06:11:00,
2013-03-27 02:16:00,29.0,20.8,29.80,WSW,247,0.0,2.3,71,0.00,CLR,,0.00,WeatherDisplay:10.37,2013-03-27 06:16:00,
2013-03-27 02:21:00,29.0,20.8,29.80,WSW,247,0.0,0.0,71,0.00,CLR,,0.00,WeatherDisplay:10.37,2013-03-27 06:21:00,
2013-03-27 02:26:00,28.9,21.0,29.80,WSW,247,0.0,0.0,72,0.00,CLR,,0.00,WeatherDisplay:10.37,2013-03-27 06:26:00,
2013-03-27 02:31:00,28.5,20.6,29.80,WSW,247,0.0,0.0,72,0.00,CLR,,0.00,WeatherDisplay:10.37,2013-03-27 06:31:00,
2013-03-27 02:36:00,27.9,20.4,29.80,WSW,247,0.0,0.0,73,0.00,CLR,,0.00,WeatherDisplay:10.37,2013-03-27 06:36:00,
2013-03-27 02:42:00,27.9,20.0,29.80,WSW,247,0.0,0.0,72,0.00,CLR,,0.00,WeatherDisplay:10.37,2013-03-27 06:42:00,
2013-03-27 02:47:00,27.9,20.4,29.79,WSW,247,0.1,1.2,73,0.00,CLR,,0.00,WeatherDisplay:10.37,2013-03-27 06:47:00,
2013-03-27 02:52:00,28.2,20.7,29.79,North,360,0.0,2.3,73,0.00,CLR,,0.00,WeatherDisplay:10.37,2013-03-27 06:52:00,
2013-03-27 02:57:00,28.4,20.5,29.79,NW,315,1.3,1.3,72,0.00,CLR,,0.00,WeatherDisplay:10.37,2013-03-27 06:57:00,
2013-03-27 03:02:00,28.6,20.7,29.79,NW,315,0.9,2.3,72,0.00,CLR,,0.00,WeatherDisplay:10.37,2013-03-27 07:02:00,
2013-03-27 03:07:00,28.6,21.0,29.79,NNW,337,0.0,0.0,73,0.00,CLR,,0.00,WeatherDisplay:10.37,2013-03-27 07:07:00,
2013-03-27 03:12:00,28.4,20.5,29.79,NNW,337,0.1,0.0,72,0.00,CLR,,0.00,WeatherDisplay:10.37,2013-03-27 07:12:00,
2013-03-27 03:17:00,28.5,20.6,29.79,NNW,337,0.0,1.2,72,0.00,CLR,,0.00,WeatherDisplay:10.37,2013-03-27 07:17:00,
2013-03-27 03:22:00,28.4,20.8,29.79,West,270,0.0,0.0,73,0.00,CLR,,0.00,WeatherDisplay:10.37,2013-03-27 07:22:00,
2013-03-27 03:27:00,28.1,21.2,29.79,West,270,0.0,0.0,75,0.00,CLR,,0.00,WeatherDisplay:10.37,2013-03-27 07:27:00,
2013-03-27 03:32:00,27.8,20.9,29.79,West,270,0.0,1.2,75,0.00,CLR,,0.00,WeatherDisplay:10.37,2013-03-27 07:32:00,
2013-03-27 03:37:00,27.4,20.8,29.79,West,270,0.0,0.0,76,0.00,CLR,,0.00,WeatherDisplay:10.37,2013-03-27 07:37:00,
2013-03-27 03:42:00,26.9,21.0,29.79,West,270,0.0,0.0,78,0.00,CLR,,0.00,WeatherDisplay:10.37,2013-03-27 07:42:00,
2013-03-27 03:47:00,26.8,21.2,29.78,West,270,0.0,0.0,79,0.00,CLR,,0.00,WeatherDisplay:10.37,2013-03-27 07:47:00,
2013-03-27 03:52:00,26.9,20.7,29.78,West,270,0.0,0.0,77,0.00,CLR,,0.00,WeatherDisplay:10.37,2013-03-27 07:52:00,
2013-03-27 03:57:00,26.9,21.0,29.78,West,270,1.0,1.3,78,0.00,CLR,,0.00,WeatherDisplay:10.37,2013-03-27 07:57:00,
2013-03-27 04:02:00,27.2,20.6,29.78,West,270,0.0,0.0,76,0.00,CLR,,0.00,WeatherDisplay:10.37,2013-03-27 08:02:00,
2013-03-27 04:07:00,27.1,20.8,29.78,West,270,0.0,0.0,77,0.00,CLR,,0.00,WeatherDisplay:10.37,2013-03-27 08:07:00,
2013-03-27 04:12:00,26.8,20.9,29.78,West,270,0.0,0.0,78,0.00,CLR,,0.00,WeatherDisplay:10.37,2013-03-27 08:12:00,
2013-03-27 04:17:00,26.6,21.0,29.78,West,270,0.0,0.0,79,0.00,CLR,,0.00,WeatherDisplay:10.37,2013-03-27 08:17:00,
2013-03-27 04:22:00,26.8,20.9,29.78,West,270,0.0,1.2,78,0.00,CLR,,0.00,WeatherDisplay:10.37,2013-03-27 08:22:00,
2013-03-27 04:27:00,26.8,20.6,29.78,West,270,0.7,1.3,77,0.00,CLR,,0.00,WeatherDisplay:10.37,2013-03-27 08:27:00,
2013-03-27 04:32:00,26.8,21.2,29.78,West,270,0.0,0.0,79,0.00,CLR,,0.00,WeatherDisplay:10.37,2013-03-27 08:32:00,
2013-03-27 04:37:00,26.8,20.9,29.78,West,270,0.0,1.2,78,0.00,CLR,,0.00,WeatherDisplay:10.37,2013-03-27 08:37:00,
2013-03-27 04:42:00,26.7,21.1,29.78,West,270,0.0,0.0,79,0.00,CLR,,0.00,WeatherDisplay:10.37,2013-03-27 08:42:00,
2013-03-27 04:47:00,26.7,21.1,29.78,West,270,0.1,1.2,79,0.00,CLR,,0.00,WeatherDisplay:10.37,2013-03-27 08:47:00,
2013-03-27 04:52:00,26.4,20.8,29.78,West,270,0.0,0.0,79,0.00,CLR,,0.00,WeatherDisplay:10.37,2013-03-27 08:52:00,
2013-03-27 04:57:00,25.8,20.8,29.79,West,270,0.0,0.0,81,0.00,CLR,,0.00,WeatherDisplay:10.37,2013-03-27 08:57:00,
2013-03-27 05:02:00,25.4,20.7,29.79,West,270,0.0,0.0,82,0.00,CLR,,0.00,WeatherDisplay:10.37,2013-03-27 09:02:00,
2013-03-27 05:07:00,25.6,20.9,29.79,West,270,0.8,1.3,82,0.00,CLR,,0.00,WeatherDisplay:10.37,2013-03-27 09:07:00,
2013-03-27 05:12:00,25.7,21.3,29.79,West,270,0.0,0.0,83,0.00,CLR,,0.00,WeatherDisplay:10.37,2013-03-27 09:12:00,
2013-03-27 05:17:00,25.5,21.3,29.79,West,270,0.0,0.0,84,0.00,CLR,,0.00,WeatherDisplay:10.37,2013-03-27 09:17:00,
2013-03-27 05:22:00,25.1,21.5,29.79,West,270,0.0,0.0,86,0.00,CLR,,0.00,WeatherDisplay:10.37,2013-03-27 09:22:00,
2013-03-27 05:27:00,24.8,20.9,29.79,West,270,0.0,0.0,85,0.00,CLR,,0.00,WeatherDisplay:10.37,2013-03-27 09:27:00,
2013-03-27 05:32:00,24.6,21.0,29.79,West,270,0.0,0.0,86,0.00,CLR,,0.00,WeatherDisplay:10.37,2013-03-27 09:32:00,
2013-03-27 05:37:00,24.3,20.4,29.79,West,270,0.0,0.0,85,0.00,CLR,,0.00,WeatherDisplay:10.37,2013-03-27 09:37:00,
2013-03-27 05:42:00,24.2,20.6,29.79,West,270,0.0,0.0,86,0.00,CLR,,0.00,WeatherDisplay:10.37,2013-03-27 09:42:00,
2013-03-27 05:47:00,24.2,20.9,29.79,West,270,0.0,0.0,87,0.00,CLR,,0.00,WeatherDisplay:10.37,2013-03-27 09:47:00,
2013-03-27 05:52:00,24.6,21.3,29.80,West,270,0.0,0.0,87,0.00,CLR,,0.00,WeatherDisplay:10.37,2013-03-27 09:52:00,
2013-03-27 05:57:00,24.9,21.0,29.80,West,270,0.0,0.0,85,0.00,CLR,,0.00,WeatherDisplay:10.37,2013-03-27 09:57:00,
2013-03-27 06:02:00,24.9,21.3,29.80,West,270,0.0,0.0,86,0.00,CLR,,0.00,WeatherDisplay:10.37,2013-03-27 10:02:00,
2013-03-27 06:07:00,24.7,21.1,29.80,West,270,0.0,0.0,86,0.00,CLR,,0.00,WeatherDisplay:10.37,2013-03-27 10:07:00,
2013-03-27 06:12:00,24.4,21.4,29.80,West,270,0.0,0.0,88,0.00,CLR,,0.00,WeatherDisplay:10.37,2013-03-27 10:12:00,
2013-03-27 06:17:00,23.9,21.4,29.80,West,270,0.0,0.0,90,0.00,CLR,,0.00,WeatherDisplay:10.37,2013-03-27 10:17:00,
2013-03-27 06:22:00,23.8,21.8,29.80,West,270,0.0,0.0,92,0.00,CLR,,0.00,WeatherDisplay:10.37,2013-03-27 10:22:00,
2013-03-27 06:27:00,23.5,21.5,29.80,West,270,0.0,0.0,92,0.00,CLR,,0.00,WeatherDisplay:10.37,2013-03-27 10:27:00,
2013-03-27 06:32:00,23.2,21.5,29.80,West,270,0.0,0.0,93,0.00,CLR,,0.00,WeatherDisplay:10.37,2013-03-27 10:32:00,
2013-03-27 06:37:00,22.9,21.2,29.80,West,270,0.0,0.0,93,0.00,CLR,,0.00,WeatherDisplay:10.37,2013-03-27 10:37:00,
2013-03-27 06:42:00,22.8,21.1,29.81,West,270,0.0,0.0,93,0.00,CLR,,0.00,WeatherDisplay:10.37,2013-03-27 10:42:00,
2013-03-27 06:47:00,22.8,21.1,29.81,West,270,0.0,0.0,93,0.00,CLR,,0.00,WeatherDisplay:10.37,2013-03-27 10:47:00,
2013-03-27 06:52:00,22.7,21.0,29.81,West,270,0.0,0.0,93,0.00,CLR,,0.00,WeatherDisplay:10.37,2013-03-27 10:52:00,
2013-03-27 06:57:00,22.7,21.0,29.81,West,270,0.0,0.0,93,0.00,CLR,,0.00,WeatherDisplay:10.37,2013-03-27 10:57:00,
2013-03-27 07:02:00,22.7,21.0,29.81,West,270,0.0,0.0,93,0.00,CLR,,0.00,WeatherDisplay:10.37,2013-03-27 11:02:00,
2013-03-27 07:07:00,22.8,21.1,29.81,West,270,0.0,0.0,93,0.00,CLR,,0.00,WeatherDisplay:10.37,2013-03-27 11:07:00,
2013-03-27 07:12:00,23.1,21.4,29.81,West,270,0.0,0.0,93,0.00,CLR,,0.00,WeatherDisplay:10.37,2013-03-27 11:12:00,
2013-03-27 07:17:00,23.5,21.8,29.81,West,270,0.0,0.0,93,0.00,CLR,,0.00,WeatherDisplay:10.37,2013-03-27 11:17:00,
2013-03-27 07:22:00,23.9,22.2,29.81,West,270,0.0,0.0,93,0.00,CLR,,0.00,WeatherDisplay:10.37,2013-03-27 11:22:00,
2013-03-27 07:27:00,24.7,23.0,29.81,West,270,0.0,0.0,93,0.00,CLR,,0.00,WeatherDisplay:10.37,2013-03-27 11:27:00,
2013-03-27 07:32:00,25.3,23.8,29.81,West,270,0.0,0.0,94,0.00,CLR,,0.00,WeatherDisplay:10.37,2013-03-27 11:32:00,
2013-03-27 07:37:00,25.9,23.9,29.81,West,270,0.0,0.0,92,0.00,CLR,,0.00,WeatherDisplay:10.37,2013-03-27 11:37:00,
2013-03-27 07:42:00,26.5,24.2,29.82,West,270,0.0,0.0,91,0.00,CLR,,0.00,WeatherDisplay:10.37,2013-03-27 11:42:00,
2013-03-27 07:47:00,26.9,24.4,29.80,West,270,0.7,2.3,90,0.00,CLR,,0.00,WeatherDisplay:10.37,2013-03-27 11:47:00,
2013-03-27 07:52:00,27.9,25.3,29.81,West,270,0.0,0.0,90,0.00,CLR,,0.00,WeatherDisplay:10.37,2013-03-27 11:52:00,
2013-03-27 07:57:00,29.3,24.8,29.81,West,270,0.0,0.0,83,0.00,CLR,,0.00,WeatherDisplay:10.37,2013-03-27 11:57:00,
2013-03-27 08:02:00,30.7,25.9,29.81,WSW,247,0.0,0.0,82,0.00,CLR,,0.00,WeatherDisplay:10.37,2013-03-27 12:02:00,
2013-03-27 08:07:00,32.4,26.3,29.81,West,270,2.4,2.7,78,0.00,CLR,,0.00,WeatherDisplay:10.37,2013-03-27 12:07:00,
2013-03-27 08:12:00,34.2,25.1,29.81,WSW,247,0.7,1.3,69,0.00,CLR,,0.00,WeatherDisplay:10.37,2013-03-27 12:12:00,
2013-03-27 08:17:00,35.5,24.9,29.82,WNW,292,2.9,4.1,65,0.00,CLR,,0.00,WeatherDisplay:10.37,2013-03-27 12:17:00,
2013-03-27 08:22:00,37.7,25.1,29.82,North,360,2.8,4.6,60,0.00,CLR,,0.00,WeatherDisplay:10.37,2013-03-27 12:22:00,
2013-03-27 08:27:00,38.8,27.3,29.82,NNW,337,1.5,2.7,63,0.00,CLR,,0.00,WeatherDisplay:10.37,2013-03-27 12:27:00,
2013-03-27 08:32:00,39.9,24.6,29.82,WSW,247,4.2,5.8,54,0.00,CLR,,0.00,WeatherDisplay:10.37,2013-03-27 12:32:00,
2013-03-27 08:37:00,40.9,25.1,29.82,WSW,247,3.2,5.8,53,0.00,CLR,,0.00,WeatherDisplay:10.37,2013-03-27 12:37:00,
2013-03-27 08:42:00,41.7,26.3,29.83,WSW,247,3.2,5.8,54,0.00,CLR,,0.00,WeatherDisplay:10.37,2013-03-27 12:42:00,
2013-03-27 08:47:00,42.2,25.8,29.83,West,270,2.2,5.8,52,0.00,CLR,,0.00,WeatherDisplay:10.37,2013-03-27 12:47:00,
2013-03-27 08:52:00,42.5,25.6,29.83,WNW,292,2.8,2.8,51,0.00,CLR,,0.00,WeatherDisplay:10.37,2013-03-27 12:52:00,
2013-03-27 08:57:00,43.0,25.6,29.84,North,360,1.5,4.6,50,0.00,CLR,,0.00,WeatherDisplay:10.37,2013-03-27 12:57:00,
2013-03-27 09:02:00,43.7,25.3,29.84,North,360,7.0,10.4,48,0.00,CLR,,0.00,WeatherDisplay:10.37,2013-03-27 13:02:00,
2013-03-27 09:07:00,44.5,25.5,29.84,West,270,5.1,6.9,47,0.00,CLR,,0.00,WeatherDisplay:10.37,2013-03-27 13:07:00,
2013-03-27 09:12:00,44.8,25.8,29.84,WNW,292,4.8,12.7,47,0.00,CLR,,0.00,WeatherDisplay:10.37,2013-03-27 13:12:00,
2013-03-27 09:17:00,45.1,25.5,29.84,NNE,22,5.0,8.1,46,0.00,CLR,,0.00,WeatherDisplay:10.37,2013-03-27 13:17:00,
2013-03-27 09:22:00,45.6,26.0,29.84,West,270,1.8,5.8,46,0.00,CLR,,0.00,WeatherDisplay:10.37,2013-03-27 13:22:00,
2013-03-27 09:27:00,46.1,25.9,29.84,West,270,1.1,2.3,45,0.00,CLR,,0.00,WeatherDisplay:10.37,2013-03-27 13:27:00,
2013-03-27 09:32:00,46.3,25.0,29.84,NW,315,3.9,8.1,43,0.00,CLR,,0.00,WeatherDisplay:10.37,2013-03-27 13:32:00,
2013-03-27 09:37:00,46.5,25.7,29.85,West,270,4.1,6.9,44,0.00,CLR,,0.00,WeatherDisplay:10.37,2013-03-27 13:37:00,
2013-03-27 09:42:00,46.6,25.8,29.85,NW,315,2.4,2.4,44,0.00,CLR,,0.00,WeatherDisplay:10.37,2013-03-27 13:42:00,
2013-03-27 09:47:00,46.9,26.1,29.85,North,360,4.8,5.8,44,0.00,CLR,,0.00,WeatherDisplay:10.37,2013-03-27 13:47:00,
2013-03-27 09:52:00,46.9,26.1,29.85,West,270,4.4,5.8,44,0.00,CLR,,0.00,WeatherDisplay:10.37,2013-03-27 13:52:00,
2013-03-27 09:57:00,47.1,26.3,29.85,NW,315,5.0,9.2,44,0.00,CLR,,0.00,WeatherDisplay:10.37,2013-03-27 13:57:00,
2013-03-27 10:02:00,47.4,25.4,29.85,NE,45,3.3,4.6,42,0.00,CLR,,0.00,WeatherDisplay:10.37,2013-03-27 14:02:00,
2013-03-27 10:07:00,47.4,27.1,29.85,NNW,337,2.9,9.2,45,0.00,CLR,,0.00,WeatherDisplay:10.37,2013-03-27 14:07:00,
2013-03-27 10:12:00,47.8,25.8,29.85,North,360,3.7,8.1,42,0.00,CLR,,0.00,WeatherDisplay:10.37,2013-03-27 14:12:00,
2013-03-27 10:17:00,48.3,25.7,29.85,WNW,292,4.4,8.1,41,0.00,CLR,,0.00,WeatherDisplay:10.37,2013-03-27 14:17:00,
2013-03-27 10:22:00,47.9,25.3,29.85,West,270,9.4,10.4,41,0.00,CLR,,0.00,WeatherDisplay:10.37,2013-03-27 14:22:00,
2013-03-27 10:27:00,48.1,26.1,29.85,NW,315,3.7,5.8,42,0.00,CLR,,0.00,WeatherDisplay:10.37,2013-03-27 14:27:00,
2013-03-27 10:32:00,48.5,25.8,29.85,North,360,4.1,5.8,41,0.00,CLR,,0.00,WeatherDisplay:10.37,2013-03-27 14:32:00,
2013-03-27 10:37:00,48.8,25.5,29.84,SE,135,4.8,9.2,40,0.00,CLR,,0.00,WeatherDisplay:10.37,2013-03-27 14:37:00,
2013-03-27 10:42:00,49.0,25.1,29.84,WNW,292,2.0,4.6,39,0.00,CLR,,0.00,WeatherDisplay:10.37,2013-03-27 14:42:00,
2013-03-27 10:47:00,49.7,25.7,29.84,WNW,292,4.1,6.9,39,0.00,CLR,,0.00,WeatherDisplay:10.37,2013-03-27 14:47:00,
2013-03-27 10:52:00,49.5,26.1,29.84,NE,45,6.3,9.2,40,0.00,CLR,,0.00,WeatherDisplay:10.37,2013-03-27 14:52:00,
2013-03-27 10:57:00,50.0,27.8,29.84,SE,135,3.3,5.8,42,0.00,CLR,,0.00,WeatherDisplay:10.37,2013-03-27 14:57:00,
2013-03-27 11:02:00,49.8,26.4,29.84,WNW,292,7.3,12.7,40,0.00,CLR,,0.00,WeatherDisplay:10.37,2013-03-27 15:02:00,
2013-03-27 11:07:00,50.5,28.2,29.84,NW,315,4.1,15.0,42,0.00,CLR,,0.00,WeatherDisplay:10.37,2013-03-27 15:07:00,
2013-03-27 11:12:00,50.6,26.5,29.84,North,360,8.3,8.3,39,0.00,CLR,,0.00,WeatherDisplay:10.37,2013-03-27 15:12:00,
2013-03-27 11:17:00,50.4,26.3,29.84,West,270,6.1,9.2,39,0.00,CLR,,0.00,WeatherDisplay:10.37,2013-03-27 15:17:00,
2013-03-27 11:22:00,50.8,26.7,29.84,WNW,292,5.9,8.1,39,0.00,CLR,,0.00,WeatherDisplay:10.37,2013-03-27 15:22:00,
2013-03-27 11:27:00,51.6,27.4,29.84,WNW,292,5.0,9.2,39,0.00,CLR,,0.00,WeatherDisplay:10.37,2013-03-27 15:27:00,
2013-03-27 11:32:00,51.8,27.0,29.84,SE,135,4.3,9.2,38,0.00,CLR,,0.00,WeatherDisplay:10.37,2013-03-27 15:32:00,
2013-03-27 11:37:00,51.9,27.7,29.84,West,270,4.0,9.2,39,0.00,CLR,,0.00,WeatherDisplay:10.37,2013-03-27 15:37:00,
2013-03-27 11:42:00,51.9,26.4,29.84,NE,45,7.9,9.2,37,0.00,CLR,,0.00,WeatherDisplay:10.37,2013-03-27 15:42:00,
2013-03-27 11:47:00,52.1,26.6,29.84,NNE,22,3.5,4.6,37,0.00,CLR,,0.00,WeatherDisplay:10.37,2013-03-27 15:47:00,
2013-03-27 11:52:00,52.2,27.3,29.83,NNW,337,6.4,12.7,38,0.00,CLR,,0.00,WeatherDisplay:10.37,2013-03-27 15:52:00,
2013-03-27 11:57:00,52.1,27.2,29.83,NE,45,4.6,8.1,38,0.00,CLR,,0.00,WeatherDisplay:10.37,2013-03-27 15:57:00,
2013-03-27 12:02:00,52.2,27.3,29.83,NNW,337,6.5,9.2,38,0.00,CLR,,0.00,WeatherDisplay:10.37,2013-03-27 16:02:00,
2013-03-27 12:07:00,51.7,27.5,29.83,West,270,9.8,18.4,39,0.00,CLR,,0.00,WeatherDisplay:10.37,2013-03-27 16:07:00,
2013-03-27 12:12:00,51.6,26.8,29.83,NW,315,6.7,8.1,38,0.00,CLR,,0.00,WeatherDisplay:10.37,2013-03-27 16:12:00,
2013-03-27 12:17:00,51.8,26.3,29.83,WNW,292,8.7,9.2,37,0.00,CLR,,0.00,WeatherDisplay:10.37,2013-03-27 16:17:00,
2013-03-27 12:22:00,52.2,29.2,29.83,SW,225,2.5,9.2,41,0.00,CLR,,0.00,WeatherDisplay:10.37,2013-03-27 16:22:00,
2013-03-27 12:28:00,52.8,27.2,29.83,West,270,8.1,10.4,37,0.00,CLR,,0.00,WeatherDisplay:10.37,2013-03-27 16:28:00,
2013-03-27 12:33:00,52.8,28.5,29.83,West,270,9.0,12.7,39,0.00,CLR,,0.00,WeatherDisplay:10.37,2013-03-27 16:33:00,
2013-03-27 12:38:00,52.9,27.3,29.82,NW,315,3.8,8.1,37,0.00,CLR,,0.00,WeatherDisplay:10.37,2013-03-27 16:38:00,
2013-03-27 12:43:00,53.5,27.8,29.82,West,270,5.2,8.1,37,0.00,CLR,,0.00,WeatherDisplay:10.37,2013-03-27 16:43:00,
2013-03-27 12:48:00,53.6,27.3,29.82,West,270,6.6,9.2,36,0.00,CLR,,0.00,WeatherDisplay:10.37,2013-03-27 16:48:00,
2013-03-27 12:53:00,53.2,28.2,29.82,West,270,5.0,9.2,38,0.00,CLR,,0.00,WeatherDisplay:10.37,2013-03-27 16:53:00,
2013-03-27 12:58:00,53.5,27.2,29.82,West,270,3.8,12.7,36,0.00,CLR,,0.00,WeatherDisplay:10.37,2013-03-27 16:58:00,
2013-03-27 13:03:00,53.6,27.3,29.82,North,360,2.4,8.1,36,0.00,BKN,,0.00,WeatherDisplay:10.37,2013-03-27 17:03:00,
2013-03-27 13:08:00,53.9,25.4,29.82,NNE,22,7.2,12.7,33,0.00,BKN,,0.00,WeatherDisplay:10.37,2013-03-27 17:08:00,
2013-03-27 13:13:00,53.0,26.0,29.82,WSW,247,3.6,9.2,35,0.00,BKN,,0.00,WeatherDisplay:10.37,2013-03-27 17:13:00,
2013-03-27 13:18:00,52.2,25.3,29.82,NW,315,3.0,9.2,35,0.00,BKN,,0.00,WeatherDisplay:10.37,2013-03-27 17:18:00,
2013-03-27 13:23:00,52.2,26.0,29.82,NW,315,1.1,2.3,36,0.00,BKN,,0.00,WeatherDisplay:10.37,2013-03-27 17:23:00,
2013-03-27 13:28:00,51.9,25.1,29.82,NW,315,5.4,9.2,35,0.00,BKN,,0.00,WeatherDisplay:10.37,2013-03-27 17:28:00,
2013-03-27 13:33:00,51.9,25.8,29.82,West,270,4.7,6.9,36,0.00,BKN,,0.00,WeatherDisplay:10.37,2013-03-27 17:33:00,
2013-03-27 13:38:00,53.3,25.6,29.82,West,270,10.3,12.7,34,0.00,BKN,,0.00,WeatherDisplay:10.37,2013-03-27 17:38:00,
2013-03-27 13:43:00,54.4,27.3,29.82,NNE,22,6.0,9.2,35,0.00,BKN,,0.00,WeatherDisplay:10.37,2013-03-27 17:43:00,
2013-03-27 13:48:00,54.9,27.0,29.81,West,270,3.0,12.7,34,0.00,BKN,,0.00,WeatherDisplay:10.37,2013-03-27 17:48:00,
2013-03-27 13:53:00,54.1,25.6,29.81,WNW,292,6.6,8.1,33,0.00,BKN,,0.00,WeatherDisplay:10.37,2013-03-27 17:53:00,
2013-03-27 13:58:00,54.7,24.6,29.82,West,270,3.2,5.8,31,0.00,BKN,,0.00,WeatherDisplay:10.37,2013-03-27 17:58:00,
2013-03-27 14:03:00,53.5,25.1,29.82,WNW,292,5.9,10.4,33,0.00,OVC,,0.00,WeatherDisplay:10.37,2013-03-27 18:03:00,
2013-03-27 14:08:00,52.4,24.8,29.82,SW,225,2.6,2.7,34,0.00,OVC,,0.00,WeatherDisplay:10.37,2013-03-27 18:08:00,
2013-03-27 14:13:00,52.2,25.3,29.82,SE,135,2.8,5.8,35,0.00,OVC,,0.00,WeatherDisplay:10.37,2013-03-27 18:13:00,
2013-03-27 14:18:00,51.9,25.8,29.82,NE,45,4.0,5.8,36,0.00,OVC,,0.00,WeatherDisplay:10.37,2013-03-27 18:18:00,
2013-03-27 14:23:00,52.7,26.5,29.82,North,360,1.9,5.8,36,0.00,OVC,,0.00,WeatherDisplay:10.37,2013-03-27 18:23:00,
2013-03-27 14:28:00,53.6,25.2,29.81,SW,225,6.5,8.1,33,0.00,OVC,,0.00,WeatherDisplay:10.37,2013-03-27 18:28:00,
2013-03-27 14:33:00,52.7,24.4,29.81,NW,315,6.0,6.0,33,0.00,OVC,,0.00,WeatherDisplay:10.37,2013-03-27 18:33:00,
2013-03-27 14:38:00,51.9,25.1,29.82,NE,45,3.1,5.8,35,0.00,OVC,,0.00,WeatherDisplay:10.37,2013-03-27 18:38:00,
2013-03-27 14:43:00,51.6,25.5,29.82,NE,45,4.0,6.9,36,0.00,OVC,,0.00,WeatherDisplay:10.37,2013-03-27 18:43:00,
2013-03-27 14:48:00,51.3,25.2,29.82,West,270,5.0,5.0,36,0.00,OVC,,0.00,WeatherDisplay:10.37,2013-03-27 18:48:00,
2013-03-27 14:53:00,51.2,25.8,29.82,NNE,22,3.1,6.9,37,0.00,OVC,,0.00,WeatherDisplay:10.37,2013-03-27 18:53:00,
2013-03-27 14:58:00,51.3,24.5,29.81,North,360,3.3,6.9,35,0.00,OVC,,0.00,WeatherDisplay:10.37,2013-03-27 18:58:00,
2013-03-27 15:03:00,51.5,25.4,29.81,NE,45,2.7,9.2,36,0.00,OVC,,0.00,WeatherDisplay:10.37,2013-03-27 19:03:00,
2013-03-27 15:08:00,51.9,24.4,29.81,SW,225,5.5,5.8,34,0.00,OVC,,0.00,WeatherDisplay:10.37,2013-03-27 19:08:00,
2013-03-27 15:13:00,51.9,25.1,29.81,West,270,4.9,13.5,35,0.00,OVC,,0.00,WeatherDisplay:10.37,2013-03-27 19:13:00,
2013-03-27 15:18:00,51.9,24.4,29.81,West,270,7.3,12.7,34,0.00,OVC,,0.00,WeatherDisplay:10.37,2013-03-27 19:18:00,
2013-03-27 15:23:00,51.8,24.3,29.81,West,270,6.4,10.4,34,0.00,OVC,,0.00,WeatherDisplay:10.37,2013-03-27 19:23:00,
2013-03-27 15:28:00,51.7,23.5,29.81,NNW,337,4.0,8.1,33,0.00,OVC,,0.00,WeatherDisplay:10.37,2013-03-27 19:28:00,
2013-03-27 15:33:00,51.9,23.7,29.81,North,360,4.0,8.1,33,0.00,OVC,,0.00,WeatherDisplay:10.37,2013-03-27 19:33:00,
2013-03-27 15:38:00,51.7,23.5,29.81,NNE,22,3.5,6.9,33,0.00,OVC,,0.00,WeatherDisplay:10.37,2013-03-27 19:38:00,
2013-03-27 15:43:00,51.7,24.2,29.81,West,270,3.6,5.8,34,0.00,OVC,,0.00,WeatherDisplay:10.37,2013-03-27 19:43:00,
2013-03-27 15:48:00,51.7,24.2,29.81,North,360,4.9,8.1,34,0.00,OVC,,0.00,WeatherDisplay:10.37,2013-03-27 19:48:00,
2013-03-27 15:53:00,51.7,23.5,29.81,NNW,337,5.3,9.2,33,0.00,OVC,,0.00,WeatherDisplay:10.37,2013-03-27 19:53:00,
2013-03-27 15:58:00,51.5,24.0,29.82,West,270,6.0,8.1,34,0.00,OVC,,0.00,WeatherDisplay:10.37,2013-03-27 19:58:00,
2013-03-27 16:03:00,51.2,23.8,29.82,North,360,6.6,10.4,34,0.00,OVC,,0.00,WeatherDisplay:10.37,2013-03-27 20:03:00,
2013-03-27 16:08:00,50.9,24.2,29.82,West,270,4.4,9.2,35,0.00,OVC,,0.00,WeatherDisplay:10.37,2013-03-27 20:08:00,
2013-03-27 16:13:00,50.7,24.7,29.82,West,270,6.0,8.1,36,0.00,OVC,,0.00,WeatherDisplay:10.37,2013-03-27 20:13:00,
2013-03-27 16:18:00,50.8,25.4,29.82,NNW,337,3.1,12.7,37,0.00,OVC,,0.00,WeatherDisplay:10.37,2013-03-27 20:18:00,
2013-03-27 16:23:00,50.8,25.4,29.82,SE,135,2.9,9.2,37,0.00,OVC,,0.00,WeatherDisplay:10.37,2013-03-27 20:23:00,
2013-03-27 16:28:00,50.8,24.8,29.82,WNW,292,3.6,6.9,36,0.00,OVC,,0.00,WeatherDisplay:10.37,2013-03-27 20:28:00,
2013-03-27 16:33:00,50.9,25.5,29.82,NNE,22,4.4,10.4,37,0.00,OVC,,0.00,WeatherDisplay:10.37,2013-03-27 20:33:00,
2013-03-27 16:38:00,50.8,24.8,29.82,NNW,337,4.9,8.1,36,0.00,OVC,,0.00,WeatherDisplay:10.37,2013-03-27 20:38:00,
2013-03-27 16:43:00,50.8,24.1,29.82,NE,45,7.7,12.7,35,0.00,OVC,,0.00,WeatherDisplay:10.37,2013-03-27 20:43:00,
2013-03-27 16:48:00,50.8,24.8,29.82,North,360,5.5,8.1,36,0.00,OVC,,0.00,WeatherDisplay:10.37,2013-03-27 20:48:00,
2013-03-27 16:53:00,50.9,24.9,29.82,SW,225,2.0,5.8,36,0.00,OVC,,0.00,WeatherDisplay:10.37,2013-03-27 20:53:00,
2013-03-27 16:58:00,50.9,24.9,29.82,WSW,247,5.0,8.1,36,0.00,OVC,,0.00,WeatherDisplay:10.37,2013-03-27 20:58:00,
2013-03-27 17:03:00,50.9,24.9,29.82,WNW,292,4.0,4.6,36,0.00,OVC,,0.00,WeatherDisplay:10.37,2013-03-27 21:03:00,
2013-03-27 17:08:00,50.8,25.4,29.83,West,270,3.6,8.1,37,0.00,OVC,,0.00,WeatherDisplay:10.37,2013-03-27 21:08:00,
2013-03-27 17:13:00,50.5,25.2,29.83,NW,315,3.5,8.1,37,0.00,OVC,,0.00,WeatherDisplay:10.37,2013-03-27 21:13:00,
2013-03-27 17:18:00,50.3,25.0,29.83,WNW,292,5.4,12.7,37,0.00,OVC,,0.00,WeatherDisplay:10.37,2013-03-27 21:18:00,
2013-03-27 17:23:00,50.3,25.6,29.83,WNW,292,4.6,6.7,38,0.00,OVC,,0.00,WeatherDisplay:10.37,2013-03-27 21:23:00,
2013-03-27 17:28:00,50.3,25.0,29.83,West,270,4.4,5.8,37,0.00,OVC,,0.00,WeatherDisplay:10.37,2013-03-27 21:28:00,
2013-03-27 17:33:00,50.1,25.5,29.83,WSW,247,6.3,8.1,38,0.00,OVC,,0.00,WeatherDisplay:10.37,2013-03-27 21:33:00,
2013-03-27 17:38:00,49.9,25.3,29.84,West,270,5.0,8.1,38,0.00,OVC,,0.00,WeatherDisplay:10.37,2013-03-27 21:38:00,
2013-03-27 17:43:00,49.9,25.9,29.84,NE,45,4.8,10.4,39,0.00,OVC,,0.00,WeatherDisplay:10.37,2013-03-27 21:43:00,
2013-03-27 17:48:00,49.8,25.2,29.84,West,270,6.3,9.2,38,0.00,OVC,,0.00,WeatherDisplay:10.37,2013-03-27 21:48:00,
2013-03-27 17:53:00,49.8,25.2,29.84,NNW,337,3.8,8.1,38,0.00,OVC,,0.00,WeatherDisplay:10.37,2013-03-27 21:53:00,
2013-03-27 17:58:00,49.7,25.1,29.84,West,270,4.6,5.8,38,0.00,OVC,,0.00,WeatherDisplay:10.37,2013-03-27 21:58:00,
2013-03-27 18:03:00,49.6,26.2,29.84,NW,315,2.2,4.6,40,0.00,OVC,,0.00,WeatherDisplay:10.37,2013-03-27 22:03:00,
2013-03-27 18:08:00,49.5,24.9,29.84,West,270,5.0,8.1,38,0.00,OVC,,0.00,WeatherDisplay:10.37,2013-03-27 22:08:00,
2013-03-27 18:13:00,49.4,24.8,29.84,NNE,22,3.6,5.8,38,0.00,OVC,,0.00,WeatherDisplay:10.37,2013-03-27 22:13:00,
2013-03-27 18:18:00,49.3,25.4,29.85,West,270,3.2,8.1,39,0.00,OVC,,0.00,WeatherDisplay:10.37,2013-03-27 22:18:00,
2013-03-27 18:23:00,49.1,25.2,29.85,NW,315,1.5,5.4,39,0.00,OVC,,0.00,WeatherDisplay:10.37,2013-03-27 22:23:00,
2013-03-27 18:28:00,48.9,25.6,29.85,North,360,2.3,2.7,40,0.00,OVC,,0.00,WeatherDisplay:10.37,2013-03-27 22:28:00,
2013-03-27 18:33:00,48.7,25.4,29.85,NW,315,3.7,6.9,40,0.00,OVC,,0.00,WeatherDisplay:10.37,2013-03-27 22:33:00,
2013-03-27 18:38:00,48.4,25.8,29.85,North,360,0.3,2.3,41,0.00,OVC,,0.00,WeatherDisplay:10.37,2013-03-27 22:38:00,
2013-03-27 18:43:00,47.8,26.9,29.86,WSW,247,1.6,4.1,44,0.00,OVC,,0.00,WeatherDisplay:10.37,2013-03-27 22:43:00,
2013-03-27 18:48:00,47.6,25.6,29.86,NW,315,1.9,2.3,42,0.00,OVC,,0.00,WeatherDisplay:10.37,2013-03-27 22:48:00,
2013-03-27 18:53:00,47.3,24.8,29.86,NW,315,0.6,2.3,41,0.00,OVC,,0.00,WeatherDisplay:10.37,2013-03-27 22:53:00,
2013-03-27 18:58:00,46.6,24.7,29.86,NNE,22,0.9,1.2,42,0.00,OVC,,0.00,WeatherDisplay:10.37,2013-03-27 22:58:00,
2013-03-27 19:03:00,46.1,24.8,29.86,WNW,292,1.8,2.3,43,0.00,CLR,,0.00,WeatherDisplay:10.37,2013-03-27 23:03:00,
2013-03-27 19:08:00,45.9,25.7,29.86,NW,315,0.0,0.0,45,0.00,CLR,,0.00,WeatherDisplay:10.37,2013-03-27 23:08:00,
2013-03-27 19:13:00,45.9,24.6,29.86,NW,315,0.3,1.2,43,0.00,CLR,,0.00,WeatherDisplay:10.37,2013-03-27 23:13:00,
2013-03-27 19:18:00,45.8,26.2,29.86,NW,315,0.0,0.0,46,0.00,CLR,,0.00,WeatherDisplay:10.37,2013-03-27 23:18:00,
2013-03-27 19:23:00,45.5,26.9,29.87,NW,315,0.0,0.0,48,0.00,CLR,,0.00,WeatherDisplay:10.37,2013-03-27 23:23:00,
2013-03-27 19:28:00,45.1,26.6,29.87,NW,315,0.0,0.0,48,0.00,CLR,,0.00,WeatherDisplay:10.37,2013-03-27 23:28:00,
2013-03-27 19:33:00,44.9,25.9,29.87,North,360,1.4,2.3,47,0.00,CLR,,0.00,WeatherDisplay:10.37,2013-03-27 23:33:00,
2013-03-27 19:38:00,45.4,26.8,29.87,North,360,0.4,1.3,48,0.00,CLR,,0.00,WeatherDisplay:10.37,2013-03-27 23:38:00,
2013-03-27 19:43:00,45.5,24.8,29.87,South,180,0.8,2.3,44,0.00,CLR,,0.00,WeatherDisplay:10.37,2013-03-27 23:43:00,
2013-03-27 19:48:00,46.2,26.0,29.87,WNW,292,1.8,4.6,45,0.00,CLR,,0.00,WeatherDisplay:10.37,2013-03-27 23:48:00,
2013-03-27 19:53:00,46.2,26.5,29.87,WNW,292,0.6,2.7,46,0.00,CLR,,0.00,WeatherDisplay:10.37,2013-03-27 23:53:00,
2013-03-27 19:58:00,45.9,25.7,29.87,NNW,337,0.0,0.0,45,0.00,CLR,,0.00,WeatherDisplay:10.37,2013-03-27 23:58:00,
2013-03-27 20:03:00,45.8,26.7,29.87,West,270,0.6,1.2,47,0.00,BKN,,0.00,WeatherDisplay:10.37,2013-03-28 00:03:00,
2013-03-27 20:08:00,45.4,26.8,29.88,West,270,0.0,0.0,48,0.00,BKN,,0.00,WeatherDisplay:10.37,2013-03-28 00:08:00,
2013-03-27 20:13:00,45.5,26.9,29.88,NNE,22,2.2,2.7,48,0.00,BKN,,0.00,WeatherDisplay:10.37,2013-03-28 00:13:00,
2013-03-27 20:18:00,45.9,26.8,29.88,West,270,3.9,8.1,47,0.00,BKN,,0.00,WeatherDisplay:10.37,2013-03-28 00:18:00,
2013-03-27 20:23:00,46.1,27.0,29.88,WNW,292,3.3,5.8,47,0.00,BKN,,0.00,WeatherDisplay:10.37,2013-03-28 00:23:00,
2013-03-27 20:28:00,46.1,27.0,29.88,SE,135,1.9,2.3,47,0.00,BKN,,0.00,WeatherDisplay:10.37,2013-03-28 00:28:00,
2013-03-27 20:33:00,45.8,28.2,29.88,NNW,337,1.9,2.3,50,0.00,BKN,,0.00,WeatherDisplay:10.37,2013-03-28 00:33:00,
2013-03-27 20:38:00,45.6,27.0,29.88,North,360,4.6,8.1,48,0.00,BKN,,0.00,WeatherDisplay:10.37,2013-03-28 00:38:00,
2013-03-27 20:43:00,45.7,27.1,29.88,WSW,247,2.6,2.6,48,0.00,BKN,,0.00,WeatherDisplay:10.37,2013-03-28 00:43:00,
2013-03-27 20:48:00,45.7,27.6,29.89,West,270,3.8,5.8,49,0.00,BKN,,0.00,WeatherDisplay:10.37,2013-03-28 00:48:00,
2013-03-27 20:53:00,45.6,28.0,29.89,West,270,2.4,9.5,50,0.00,BKN,,0.00,WeatherDisplay:10.37,2013-03-28 00:53:00,
2013-03-27 20:58:00,45.4,28.3,29.89,WSW,247,0.4,2.7,51,0.00,BKN,,0.00,WeatherDisplay:10.37,2013-03-28 00:58:00,
2013-03-27 21:03:00,45.0,28.4,29.90,NNE,22,2.5,2.7,52,0.00,BKN,,0.00,WeatherDisplay:10.37,2013-03-28 01:03:00,
2013-03-27 21:08:00,44.9,27.8,29.90,West,270,2.5,8.1,51,0.00,BKN,,0.00,WeatherDisplay:10.37,2013-03-28 01:08:00,
2013-03-27 21:13:00,44.9,28.8,29.90,NW,315,2.4,8.1,53,0.00,BKN,,0.00,WeatherDisplay:10.37,2013-03-28 01:13:00,
2013-03-27 21:18:00,44.9,29.2,29.90,West,270,3.1,3.1,54,0.00,BKN,,0.00,WeatherDisplay:10.37,2013-03-28 01:18:00,
2013-03-27 21:23:00,44.9,29.2,29.90,West,270,1.8,4.6,54,0.00,BKN,,0.00,WeatherDisplay:10.37,2013-03-28 01:23:00,
2013-03-27 21:28:00,44.8,29.2,29.90,NE,45,2.6,2.6,54,0.00,BKN,,0.00,WeatherDisplay:10.37,2013-03-28 01:28:00,
2013-03-27 21:33:00,44.6,29.0,29.90,NW,315,2.7,2.7,54,0.00,BKN,,0.00,WeatherDisplay:10.37,2013-03-28 01:33:00,
2013-03-27 21:38:00,44.3,28.7,29.90,NNE,22,1.2,6.9,54,0.00,BKN,,0.00,WeatherDisplay:10.37,2013-03-28 01:38:00,
2013-03-27 21:43:00,43.8,28.7,29.90,NW,315,3.1,6.9,55,0.00,BKN,,0.00,WeatherDisplay:10.37,2013-03-28 01:43:00,
2013-03-27 21:48:00,43.5,28.8,29.91,West,270,3.5,8.1,56,0.00,BKN,,0.00,WeatherDisplay:10.37,2013-03-28 01:48:00,
2013-03-27 21:53:00,43.4,29.2,29.91,North,360,2.6,2.6,57,0.00,BKN,,0.00,WeatherDisplay:10.37,2013-03-28 01:53:00,
2013-03-27 21:58:00,43.0,28.8,29.91,North,360,0.8,2.3,57,0.00,BKN,,0.00,WeatherDisplay:10.37,2013-03-28 01:58:00,
2013-03-27 22:03:00,42.9,28.7,29.91,WNW,292,2.2,2.7,57,0.00,BKN,,0.00,WeatherDisplay:10.37,2013-03-28 02:03:00,
2013-03-27 22:08:00,42.8,28.6,29.91,WNW,292,2.1,4.6,57,0.00,BKN,,0.00,WeatherDisplay:10.37,2013-03-28 02:08:00,
2013-03-27 22:13:00,42.9,28.7,29.91,WNW,292,0.3,1.2,57,0.00,OVC,,0.00,WeatherDisplay:10.37,2013-03-28 02:13:00,
2013-03-27 22:18:00,42.4,29.1,29.91,South,180,0.0,0.0,59,0.00,OVC,,0.00,WeatherDisplay:10.37,2013-03-28 02:18:00,
2013-03-27 22:23:00,42.7,28.9,29.91,SSE,157,1.8,2.3,58,0.00,OVC,,0.00,WeatherDisplay:10.37,2013-03-28 02:23:00,
2013-03-27 22:28:00,42.9,28.7,29.91,NNE,22,0.0,4.6,57,0.00,OVC,,0.00,WeatherDisplay:10.37,2013-03-28 02:28:00,
2013-03-27 22:33:00,43.2,29.0,29.91,SE,135,2.3,2.3,57,0.00,OVC,,0.00,WeatherDisplay:10.37,2013-03-28 02:33:00,
2013-03-27 22:38:00,43.4,29.2,29.91,West,270,1.5,4.6,57,0.00,OVC,,0.00,WeatherDisplay:10.37,2013-03-28 02:38:00,
2013-03-27 22:43:00,43.6,29.4,29.91,NW,315,0.4,2.3,57,0.00,OVC,,0.00,WeatherDisplay:10.37,2013-03-28 02:43:00,
2013-03-27 22:48:00,43.6,29.4,29.91,NNW,337,4.0,5.8,57,0.00,OVC,,0.00,WeatherDisplay:10.37,2013-03-28 02:48:00,
2013-03-27 22:53:00,43.6,29.8,29.91,West,270,1.6,4.1,58,0.00,OVC,,0.00,WeatherDisplay:10.37,2013-03-28 02:53:00,
2013-03-27 22:58:00,43.7,29.9,29.91,WSW,247,3.2,6.9,58,0.00,OVC,,0.00,WeatherDisplay:10.37,2013-03-28 02:58:00,
2013-03-27 23:03:00,43.8,30.0,29.91,NNE,22,4.3,13.8,58,0.00,OVC,,0.00,WeatherDisplay:10.37,2013-03-28 03:03:00,
2013-03-27 23:08:00,43.6,30.2,29.91,NE,45,3.8,8.1,59,0.00,OVC,,0.00,WeatherDisplay:10.37,2013-03-28 03:08:00,
2013-03-27 23:13:00,43.6,30.2,29.91,North,360,5.8,10.4,59,0.00,OVC,,0.00,WeatherDisplay:10.37,2013-03-28 03:13:00,
2013-03-27 23:18:00,43.6,30.2,29.91,South,180,5.5,8.1,59,0.00,OVC,,0.00,WeatherDisplay:10.37,2013-03-28 03:18:00,
2013-03-27 23:23:00,43.5,30.5,29.91,West,270,2.9,8.1,60,0.00,OVC,,0.00,WeatherDisplay:10.37,2013-03-28 03:23:00,
2013-03-27 23:28:00,43.4,30.4,29.91,NE,45,5.5,9.2,60,0.00,OVC,,0.00,WeatherDisplay:10.37,2013-03-28 03:28:00,
2013-03-27 23:33:00,43.4,30.4,29.91,North,360,6.0,8.1,60,0.00,OVC,,0.00,WeatherDisplay:10.37,2013-03-28 03:33:00,
2013-03-27 23:38:00,43.3,30.3,29.91,NNW,337,2.1,4.6,60,0.00,OVC,,0.00,WeatherDisplay:10.37,2013-03-28 03:38:00,
2013-03-27 23:43:00,43.2,30.6,29.91,North,360,5.7,8.1,61,0.00,OVC,,0.00,WeatherDisplay:10.37,2013-03-28 03:43:00,
2013-03-27 23:48:00,43.2,31.1,29.91,WSW,247,4.6,8.1,62,0.00,OVC,,0.00,WeatherDisplay:10.37,2013-03-28 03:48:00,
2013-03-27 23:53:00,42.9,31.2,29.91,North,360,6.8,13.8,63,0.00,OVC,,0.00,WeatherDisplay:10.37,2013-03-28 03:53:00,
2013-03-27 23:58:00,42.8,31.5,29.92,NW,315,4.9,6.9,64,0.00,OVC,,0.00,WeatherDisplay:10.37,2013-03-28 03:58:00,